[[{"header":{"parameterUnit":"m.s-1","parameterCategory":1,"la1":30.2991,"la2":30.254,"lo1":-89.0895,"lo2":-89.0444,"dy":0.0017,"dx":0.0017,"nx":28,"ny":28,"refTime":"2024-02-18T09:00:00:Z","depth":0,"parameterNumber":2,"parameterNumberName":"U-component_of_WINDS"},"data":[0,0,0,0,0,0,0,0,0,0,0,0,0,0,0,0,0,0,0,0,0,0,0,0,0,0,0,0,0,0,0,0,0,0,0,0,0,0,0,0,0,0,0,0,0,0,0,0,0,0,0,0,0,0,0,0,0,0,-0.451,-0.451,0,-0.4454,-0.4453,-0.4453,-0.4371,-0.4369,-0.4368,-0.4366,-0.4311,-0.431,-0.431,0,0,0,0,0,0,0,0,0,0,0,0,0,-0.4548,-0.4548,-0.451,-0.4509,-0.4509,-0.4454,-0.4453,-0.4453,-0.4371,-0.4369,-0.4367,-0.4366,-0.4311,-0.431,-0.431,0,0,0,0,0,0,0,0,0,0,0,0,0,-0.4516,-0.4548,-0.451,-0.4461,-0.4456,-0.4454,-0.4453,-0.4452,-0.4371,-0.4369,-0.4367,-0.4365,-0.4311,-0.431,-0.431,-0.4352,0,0,-0.4309,-0.4309,0,0,0,0,0,0,0,0,-0.4518,-0.4515,-0.4469,-0.4465,-0.4459,-0.4417,-0.4446,-0.4419,-0.4372,-0.4404,-0.4366,-0.4364,-0.4348,-0.4344,-0.4339,-0.4349,-0.4347,-0.4309,-0.4309,-0.4309,-0.4309,0,0,0,0,0,0,0,-0.452,-0.4517,-0.4488,-0.4469,-0.4463,-0.4443,-0.4436,-0.4441,-0.4389,-0.4401,-0.4395,-0.4389,-0.4345,-0.4339,-0.4337,-0.4346,-0.4309,-0.4309,-0.4309,-0.4309,-0.4389,-0.4391,0,0,0,0,0,0,-0.453,-0.4519,-0.449,-0.4486,-0.4484,-0.4444,-0.4436,-0.4433,-0.4388,-0.4379,-0.4391,-0.4385,-0.434,-0.4337,-0.4334,-0.4381,-0.4309,-0.4309,-0.4309,-0.4387,-0.439,-0.4392,0,0,0,0,0,0,-0.4531,-0.4528,-0.4492,-0.4501,-0.4495,-0.4445,-0.4443,-0.4433,-0.4427,-0.4381,-0.4371,-0.4395,-0.4339,-0.4335,-0.4348,-0.4378,-0.4309,-0.4309,-0.4384,-0.4388,-0.4391,-0.4475,0,0,0,0,0,0,-0.4532,-0.4529,-0.4544,-0.4502,-0.4495,-0.4507,-0.4444,-0.4433,-0.4427,-0.4419,-0.4382,-0.4374,-0.4337,-0.4349,-0.4348,-0.4377,-0.4309,-0.4381,-0.4386,-0.439,-0.4469,-0.4481,-0.4491,0,0,0,0,0,-0.4534,-0.457,-0.4545,-0.4542,-0.4512,-0.4508,-0.4504,-0.4461,-0.4429,-0.4444,-0.4415,-0.4375,-0.4375,-0.4351,-0.4349,-0.4378,-0.4379,-0.4385,-0.4389,-0.4464,-0.4478,-0.449,0,0,0,0,0,0,-0.4616,-0.4563,-0.4535,-0.4558,-0.4538,-0.4494,-0.4512,-0.4477,-0.4466,-0.4459,-0.4406,-0.4398,-0.4419,-0.4399,-0.4374,-0.4417,-0.4371,-0.4376,-0.4429,-0.4442,-0.4452,-0.4457,-0.4308,0,0,0,0,0,-0.4637,-0.4638,-0.4591,-0.4616,-0.4608,-0.4562,-0.4558,-0.4527,-0.4504,-0.4495,-0.4467,-0.4447,-0.4442,-0.4441,-0.4434,-0.4466,-0.4457,-0.4485,-0.4495,-0.4504,-0.451,-0.4526,-0.4539,-0.4409,-0.4409,-0.4409,0,0,-0.468,-0.4651,-0.4655,-0.4632,-0.4613,-0.4616,-0.4555,-0.456,-0.4562,-0.4496,-0.4508,-0.4486,-0.446,-0.4484,-0.4492,-0.4468,-0.4544,-0.4511,-0.4518,-0.4519,-0.4533,-0.4545,-0.4556,-0.4412,-0.4412,-0.4411,0,0,-0.4761,-0.4738,-0.4757,-0.4739,-0.4711,-0.468,-0.4685,-0.4646,-0.4629,-0.4639,-0.459,-0.4592,-0.4585,-0.4569,-0.456,-0.4635,-0.4599,-0.4635,-0.4691,-0.4708,-0.4718,-0.4727,-0.4755,-0.4766,-0.464,-0.464,-0.464,0,-0.4818,-0.482,-0.4771,-0.478,-0.4772,-0.4712,-0.4731,-0.4716,-0.4688,-0.4684,-0.4657,-0.4648,-0.4626,-0.4645,-0.4664,-0.4658,-0.4663,-0.4639,-0.472,-0.4729,-0.4736,-0.4762,-0.4773,-0.4645,-0.4644,-0.4644,-0.4643,0,-0.4892,-0.4894,-0.4913,-0.4887,-0.488,-0.4894,-0.4849,-0.4849,-0.4818,-0.479,-0.4802,-0.4774,-0.4761,-0.4763,-0.4732,-0.4778,-0.4765,-0.473,-0.4683,-0.4754,-0.4778,-0.4787,-0.4651,-0.465,-0.4648,-0.4647,0,0,-0.5023,-0.497,-0.4978,-0.4966,-0.493,-0.4931,-0.4943,-0.493,-0.4931,-0.4914,-0.4923,-0.4919,-0.4887,-0.4877,-0.4844,-0.4859,-0.4922,-0.4822,-0.4821,-0.4843,-0.4972,-0.5,-0.5012,-0.4897,-0.4898,-0.49,-0.4975,0,-0.5098,-0.5114,-0.5071,-0.5099,-0.5101,-0.5044,-0.5054,-0.5034,-0.5009,-0.5007,-0.4979,-0.4978,-0.4934,-0.4928,-0.494,-0.4912,-0.4947,-0.4905,-0.4906,-0.4907,-0.4916,-0.5024,-0.5053,-0.5125,-0.4984,-0.4985,-0.4986,0,-0.5186,-0.5173,-0.5201,-0.5165,-0.5164,-0.5174,-0.5159,-0.5158,-0.5135,-0.5115,-0.5105,-0.5066,-0.5076,-0.503,-0.5044,-0.5017,-0.5014,-0.5,-0.5002,-0.5001,-0.4952,-0.5028,-0.5147,-0.5158,-0.5,-0.4999,-0.4998,0,-0.5281,-0.527,-0.5286,-0.5277,-0.5235,-0.5243,-0.5226,-0.52,-0.5196,-0.5183,-0.5179,-0.5168,-0.5162,-0.5155,-0.5115,-0.5085,-0.5134,-0.5085,-0.5119,-0.5121,-0.5133,-0.5133,-0.5255,-0.513,-0.513,-0.5129,-0.5129,0,-0.5369,-0.5389,-0.5328,-0.5338,-0.5358,-0.5309,-0.5331,-0.5308,-0.5286,-0.5291,-0.5241,-0.5247,-0.5193,-0.5193,-0.5162,-0.5179,-0.5176,-0.5162,-0.5154,-0.5167,-0.5169,-0.5166,-0.516,-0.5132,-0.5132,-0.5131,-0.5131,0,-0.5479,-0.5438,-0.5452,-0.5411,-0.5401,-0.5418,-0.5383,-0.5391,-0.5363,-0.537,-0.5369,-0.5324,-0.5322,-0.5281,-0.527,-0.5249,-0.5279,-0.5261,-0.5288,-0.5282,-0.532,-0.5317,-0.5445,-0.546,-0.5324,-0.5325,-0.5326,0,-0.5538,-0.5552,-0.5513,-0.5512,-0.5498,-0.5497,-0.5492,-0.5445,-0.5442,-0.5416,-0.5428,-0.5421,-0.5414,-0.5413,-0.538,-0.5372,-0.5354,-0.5399,-0.5353,-0.5366,-0.5357,-0.5357,-0.5359,-0.541,-0.5412,-0.5413,-0.5414,0,-0.5649,-0.5628,-0.5623,-0.5611,-0.5606,-0.5594,-0.5579,-0.5582,-0.553,-0.5529,-0.5526,-0.552,-0.5509,-0.5504,-0.549,-0.5473,-0.5436,-0.5429,-0.5437,-0.5451,-0.5467,-0.5461,-0.5316,-0.5426,-0.5425,-0.5424,-0.5424,-0.5423,-0.5736,-0.5746,-0.572,-0.5716,-0.57,-0.5687,-0.5693,-0.5665,-0.5661,-0.5649,-0.5621,-0.5623,-0.5599,-0.5577,-0.5563,-0.5565,-0.5542,-0.5553,-0.5556,-0.556,-0.5568,-0.5466,-0.5562,-0.5561,-0.5561,-0.556,-0.556,0,-0.5845,-0.5826,-0.5822,-0.5803,-0.58,-0.5764,-0.5746,-0.5746,-0.5748,-0.5729,-0.5723,-0.5721,-0.5716,-0.5683,-0.5674,-0.5682,-0.5664,-0.5681,-0.5681,-0.5678,-0.5588,-0.5583,-0.5696,-0.5696,-0.5695,-0.5695,-0.5695,-0.5695,-0.5902,-0.5917,-0.5894,-0.5901,-0.5882,-0.5883,-0.5876,-0.5864,-0.5849,-0.5849,-0.5844,-0.5822,-0.5798,-0.5788,-0.5782,-0.5772,-0.5772,-0.5795,-0.5781,-0.5697,-0.5684,-0.5672,-0.5667,-0.5795,-0.5796,-0.5871,-0.5871,-0.5872]},{"header":{"parameterUnit":"m.s-1","parameterCategory":1,"la1":30.2991,"la2":30.254,"lo1":-89.0895,"lo2":-89.0444,"dy":0.0017,"dx":0.0017,"nx":28,"ny":28,"refTime":"2024-02-18T09:00:00:Z","depth":0,"parameterNumber":3,"parameterNumberName":"V-component_of_WINDS"},"data":[0,0,0,0,0,0,0,0,0,0,0,0,0,0,0,0,0,0,0,0,0,0,0,0,0,0,0,0,0,0,0,0,0,0,0,0,0,0,0,0,0,0,0,0,0,0,0,0,0,0,0,0,0,0,0,0,0,0,-0.5788,-0.5788,0,-0.581,-0.581,-0.581,-0.5795,-0.5794,-0.5794,-0.5793,-0.5818,-0.5819,-0.582,0,0,0,0,0,0,0,0,0,0,0,0,0,-0.5734,-0.5735,-0.5788,-0.5788,-0.5788,-0.581,-0.581,-0.5811,-0.5795,-0.5794,-0.5793,-0.5793,-0.5817,-0.5819,-0.582,0,0,0,0,0,0,0,0,0,0,0,0,0,-0.5757,-0.5735,-0.5788,-0.5783,-0.5783,-0.581,-0.581,-0.5811,-0.5795,-0.5794,-0.5793,-0.5792,-0.5817,-0.5819,-0.5821,-0.5854,0,0,-0.5827,-0.5827,0,0,0,0,0,0,0,0,-0.5755,-0.5759,-0.5784,-0.5783,-0.5783,-0.5799,-0.58,-0.5825,-0.5796,-0.5791,-0.5793,-0.5792,-0.5812,-0.5815,-0.5821,-0.5855,-0.5856,-0.5827,-0.5828,-0.5829,-0.5829,0,0,0,0,0,0,0,-0.5754,-0.5758,-0.5797,-0.5784,-0.5784,-0.5781,-0.5783,-0.5805,-0.5807,-0.5791,-0.579,-0.5793,-0.5812,-0.5819,-0.5822,-0.5856,-0.5827,-0.5828,-0.583,-0.583,-0.592,-0.5921,0,0,0,0,0,0,-0.5752,-0.5757,-0.5796,-0.5797,-0.5766,-0.5782,-0.5785,-0.5795,-0.5807,-0.5808,-0.5794,-0.5792,-0.5816,-0.5819,-0.5822,-0.5863,-0.5829,-0.5831,-0.5832,-0.5919,-0.592,-0.5921,0,0,0,0,0,0,-0.5751,-0.5756,-0.5795,-0.5777,-0.5781,-0.5784,-0.5796,-0.5796,-0.5803,-0.5809,-0.5809,-0.58,-0.5816,-0.582,-0.5846,-0.5864,-0.5831,-0.5833,-0.5917,-0.5919,-0.5921,-0.5945,0,0,0,0,0,0,-0.575,-0.5756,-0.5768,-0.5777,-0.5782,-0.5818,-0.5797,-0.5797,-0.5806,-0.5804,-0.5815,-0.5816,-0.5815,-0.5843,-0.5848,-0.5866,-0.5835,-0.5916,-0.5918,-0.592,-0.5942,-0.5947,-0.5951,0,0,0,0,0,-0.5748,-0.5774,-0.5769,-0.5774,-0.5797,-0.5819,-0.5822,-0.582,-0.5808,-0.582,-0.5824,-0.5816,-0.5861,-0.5846,-0.5851,-0.587,-0.5915,-0.5917,-0.592,-0.594,-0.5946,-0.5951,0,0,0,0,0,0,-0.5768,-0.5775,-0.5769,-0.5799,-0.5808,-0.5816,-0.5832,-0.5826,-0.5839,-0.5837,-0.5834,-0.5837,-0.5865,-0.587,-0.5854,-0.5904,-0.5886,-0.589,-0.59,-0.5905,-0.5909,-0.5909,-0.5836,0,0,0,0,0,-0.5775,-0.5791,-0.5797,-0.5823,-0.5828,-0.5829,-0.5838,-0.5836,-0.5846,-0.585,-0.5856,-0.5866,-0.5883,-0.5894,-0.5909,-0.5942,-0.5946,-0.5958,-0.5962,-0.5966,-0.597,-0.5989,-0.5995,-0.593,-0.593,-0.593,0,0,-0.5791,-0.5797,-0.5808,-0.5827,-0.5834,-0.5852,-0.5833,-0.5852,-0.5865,-0.5853,-0.5879,-0.5883,-0.5895,-0.5925,-0.5939,-0.593,-0.5988,-0.5969,-0.5972,-0.5974,-0.5993,-0.5999,-0.6004,-0.5932,-0.5932,-0.5931,0,0,-0.583,-0.5836,-0.5858,-0.5866,-0.5877,-0.5877,-0.5883,-0.5892,-0.5894,-0.592,-0.5911,-0.5927,-0.5956,-0.5965,-0.5973,-0.6016,-0.6009,-0.6021,-0.6044,-0.6063,-0.6068,-0.6073,-0.609,-0.6096,-0.6024,-0.6024,-0.6024,0,-0.5849,-0.5875,-0.5871,-0.5891,-0.59,-0.5889,-0.5913,-0.592,-0.5936,-0.5943,-0.5932,-0.5968,-0.5975,-0.6008,-0.6019,-0.6025,-0.6032,-0.602,-0.6068,-0.6072,-0.6077,-0.6093,-0.6099,-0.6026,-0.6026,-0.6025,-0.6025,0,-0.5899,-0.5917,-0.5934,-0.5949,-0.596,-0.5982,-0.5981,-0.5993,-0.5989,-0.5991,-0.6018,-0.6026,-0.6044,-0.6051,-0.6047,-0.6084,-0.6078,-0.6068,-0.605,-0.6084,-0.61,-0.6106,-0.6028,-0.6027,-0.6027,-0.6026,0,0,-0.5952,-0.5964,-0.5971,-0.5978,-0.5989,-0.6004,-0.6025,-0.6042,-0.6052,-0.6063,-0.6082,-0.6106,-0.6097,-0.6106,-0.6104,-0.612,-0.6156,-0.6108,-0.6108,-0.6118,-0.6198,-0.6208,-0.6215,-0.615,-0.6152,-0.6152,-0.6198,0,-0.5993,-0.603,-0.6027,-0.6063,-0.608,-0.607,-0.6089,-0.6098,-0.6101,-0.6116,-0.6119,-0.6137,-0.6122,-0.6128,-0.6144,-0.6148,-0.6172,-0.6144,-0.617,-0.6171,-0.6169,-0.6222,-0.6232,-0.6275,-0.6204,-0.6205,-0.6205,0,-0.6046,-0.6059,-0.6097,-0.6106,-0.6113,-0.613,-0.6146,-0.616,-0.6171,-0.6172,-0.6182,-0.6177,-0.62,-0.618,-0.6212,-0.6194,-0.6204,-0.6207,-0.6209,-0.6213,-0.6192,-0.623,-0.6288,-0.6295,-0.6214,-0.6214,-0.6213,0,-0.6084,-0.611,-0.6136,-0.6142,-0.6153,-0.6166,-0.6171,-0.618,-0.6191,-0.6205,-0.6212,-0.6228,-0.6237,-0.625,-0.625,-0.6235,-0.6283,-0.6263,-0.6286,-0.6286,-0.6298,-0.6298,-0.6361,-0.6301,-0.6301,-0.6301,-0.6301,0,-0.6131,-0.6155,-0.6153,-0.617,-0.6196,-0.6192,-0.6219,-0.6223,-0.6232,-0.6249,-0.624,-0.6257,-0.6255,-0.6272,-0.6272,-0.63,-0.6303,-0.6306,-0.6306,-0.6308,-0.6308,-0.6316,-0.6314,-0.6302,-0.6302,-0.6302,-0.6301,0,-0.6178,-0.6178,-0.6206,-0.6214,-0.6216,-0.6236,-0.6243,-0.6259,-0.626,-0.6283,-0.6288,-0.6291,-0.6311,-0.6311,-0.6334,-0.6333,-0.6368,-0.6364,-0.6365,-0.6365,-0.6388,-0.6387,-0.646,-0.647,-0.6402,-0.6403,-0.6403,0,-0.6209,-0.6228,-0.6237,-0.6248,-0.6254,-0.6272,-0.6283,-0.6279,-0.6291,-0.6305,-0.6319,-0.6338,-0.6353,-0.6386,-0.639,-0.6408,-0.6405,-0.643,-0.6408,-0.641,-0.6408,-0.6408,-0.641,-0.6435,-0.6435,-0.6436,-0.6436,0,-0.6266,-0.6265,-0.628,-0.6296,-0.6309,-0.6321,-0.6332,-0.6342,-0.634,-0.6353,-0.6373,-0.6385,-0.6408,-0.6428,-0.6445,-0.6451,-0.6445,-0.6443,-0.645,-0.6453,-0.6453,-0.6455,-0.6378,-0.6442,-0.6441,-0.6441,-0.6441,-0.644,-0.6307,-0.6323,-0.6333,-0.6351,-0.6359,-0.637,-0.6385,-0.6389,-0.6405,-0.6424,-0.642,-0.6443,-0.6454,-0.6476,-0.6484,-0.6502,-0.6494,-0.6503,-0.6506,-0.6509,-0.6512,-0.6449,-0.6505,-0.6505,-0.6505,-0.6505,-0.6505,0,-0.6365,-0.637,-0.6386,-0.6403,-0.6417,-0.6408,-0.642,-0.6433,-0.6453,-0.6463,-0.6478,-0.6502,-0.6521,-0.6526,-0.6545,-0.6559,-0.6556,-0.6564,-0.6564,-0.6566,-0.6517,-0.6511,-0.6566,-0.6566,-0.6566,-0.6566,-0.6566,-0.6566,-0.6396,-0.6424,-0.6424,-0.6456,-0.6461,-0.6483,-0.6491,-0.6501,-0.651,-0.6536,-0.6552,-0.6555,-0.6564,-0.6583,-0.6601,-0.6602,-0.661,-0.662,-0.662,-0.6575,-0.6569,-0.6563,-0.6557,-0.6621,-0.6621,-0.6667,-0.6667,-0.6668]}]]